Location: Gunter
(33.4479°N, 96.7475°W)
Time: 14:58:57
(UTC+00:00)

Daily predictions for brighter satellites

Satellite Brightness Start Highest point End
(mag) Time Altitude Azimuth Time Altitude Azimuth Time Altitude Azimuth
ATLAS 5 CENTAUR R/B 1.9 12:03:12 29° WNW 12:03:43 30° NW 12:07:19 10° N
Cosmos 1340 Rocket 2.7 12:02:59 10° S 12:06:56 89° WNW 12:10:55 10° N
Cosmos 2279 Rocket 4.2 12:02:30 10° NNW 12:08:25 48° W 12:14:18 10° SSW
CZ-4B R/B 3.4 12:05:47 10° NNE 12:09:18 55° E 12:12:55 10° S
Envisat 3.5 12:06:08 10° N 12:10:40 34° WNW 12:15:12 10° SW
Nadezhda 4 Rocket 3.9 12:04:53 10° SSW 12:11:00 72° W 12:17:14 10° N
Cosmos 1500 Rocket 3.5 12:07:27 10° S 12:11:54 83° W 12:16:23 10° N
SKYMED 2 3.8 12:09:14 10° S 12:13:24 48° W 12:17:37 10° NNW
Sich 1 4.4 12:10:57 10° SSE 12:14:59 42° E 12:19:01 10° NNE
Meteor 2-15 4.4 12:13:59 10° NNW 12:19:55 61° W 12:25:51 10° S
ATLAS 3B R/B 2.8 12:16:26 10° SW 12:22:40 49° NW 12:29:10 10° NNE
Cosmos 1805 Rocket 3.8 12:19:57 10° S 12:24:19 76° E 12:28:41 10° N
H-2A R/B 3.5 12:20:42 10° SE 12:24:39 39° ENE 12:28:42 10° N
Cosmos 1151 Rocket 4.5 12:23:48 16° WNW 12:25:07 18° W 12:28:02 10° SW
Lacrosse 5 2.9 12:21:20 10° SSW 12:26:13 50° SE 12:31:09 10° NE
BREEZE-M DEB (TANK) 4.5 12:16:48 10° NW 12:27:17 46° NNE 12:30:45 10° E
H-2A R/B 4.4 12:28:04 14° W 12:28:04 14° W 12:29:34 10° WSW
Meteor 1-27 Rocket 3.7 12:23:03 10° NNW 12:28:45 76° W 12:34:33 10° S
Cosmos 1092 Rocket 4.0 12:23:48 10° S 12:30:02 89° W 12:36:23 10° N
COSMOS 2487 3.4 12:28:30 10° N 12:31:44 44° ENE 12:34:55 10° SE
CZ-4C R/B 3.0 12:28:58 10° S 12:31:59 45° W 12:35:00 10° NNW
Meteor 1-31 Rocket 4.2 12:31:36 10° NNW 12:34:17 18° WNW 12:36:59 10° WSW
SL-4 R/B 2.2 12:34:43 10° WSW 12:37:57 37° NW 12:41:22 10° NNE
Cosmos 990 Rocket 4.4 12:33:12 10° S 12:38:25 69° ESE 12:43:37 10° NNE
Cosmos 1939 Rocket 2.7 12:35:17 10° N 12:39:10 84° WNW 12:43:01 10° SSW
BREEZE-M DEB 4.3 12:37:56 11° W 12:40:48 31° NNW 12:48:07 10° NE
DELTA 2 R/B (1) 4.1 12:41:31 10° WNW 12:46:53 49° N 12:52:15 10° E
NOSS 2 (A) 4.4 12:44:40 10° NNW 12:47:08 60° ENE 12:49:27 10° SE
CZ-2D R/B 4.4 12:43:29 10° NNE 12:47:09 47° E 12:50:48 10° S
Meteor 1-25 Rocket 4.2 12:41:46 10° SSW 12:47:19 62° W 12:52:50 10° N
SMAP 3.1 12:44:35 10° N 12:49:15 85° WNW 12:53:53 10° SSW
Okean 1 4.1 12:45:47 10° N 12:49:40 55° E 12:53:31 10° SSE
USA 215 3.9 12:43:58 10° ESE 12:50:16 54° NE 12:56:35 10° NNW
Cosmos 2297 Rocket 4.0 12:45:23 10° N 12:50:19 30° ENE 12:55:14 10° ESE
SL-8 R/B 3.8 12:47:02 10° NW 12:51:48 68° SW 12:56:31 10° SE
Okean O Rocket 4.5 12:49:56 10° NE 12:53:24 22° E 12:56:50 10° SSE
Okean O Rocket 3.3 23:43:55 10° E 23:45:53 13° ENE 23:47:51 10° NE
Cosmos 1666 Rocket 4.2 23:42:22 10° NNE 23:46:21 32° E 23:50:17 10° SE
SL-24 R/B - RUBIN 2 3.9 23:42:22 10° NNW 23:46:31 41° ENE 23:50:36 10° SE
Cosmos 2279 Rocket 4.1 23:41:30 10° SSE 23:47:33 56° E 23:53:35 10° NNE
SMAP 3.1 23:43:25 10° SSE 23:47:59 59° ENE 23:52:33 10° N
CZ-4B R/B 4.2 23:46:51 10° ESE 23:51:02 23° ENE 23:55:11 10° NNE
BREEZE-M DEB (TANK) 3.6 23:47:21 10° NW 23:54:39 89° E 23:57:29 10° SE
Lacrosse 5 rocket 3.3 23:53:30 10° NNE 23:54:57 12° NE 23:56:25 10° ENE
